[[{"header":{"parameterUnit":"m.s-1","parameterCategory":1,"la1":30.2991,"la2":30.254,"lo1":-89.0895,"lo2":-89.0444,"dy":0.0017,"dx":0.0017,"nx":28,"ny":28,"refTime":"2024-08-17T21:00:00:Z","depth":0,"parameterNumber":2,"parameterNumberName":"U-component_of_WINDS"},"data":[0,0,0,0,0,0,0,0,0,0,0,0,0,0,0,0,0,0,0,0,0,0,0,0,0,0,0,0,0,0,0,0,0,0,0,0,0,0,0,0,0,0,0,0,0,0,0,0,0,0,0,0,0,0,0,0,0,0,-0.2401,-0.2401,0,-0.2352,-0.2352,-0.2351,-0.235,-0.2351,-0.2352,-0.2352,-0.2301,-0.2299,-0.2297,0,0,0,0,0,0,0,0,0,0,0,0,0,-0.2493,-0.2492,-0.2402,-0.2401,-0.24,-0.2352,-0.2352,-0.2351,-0.235,-0.2351,-0.2352,-0.2353,-0.2301,-0.2299,-0.2297,0,0,0,0,0,0,0,0,0,0,0,0,0,-0.245,-0.2491,-0.2402,-0.2394,-0.2393,-0.2352,-0.2352,-0.2351,-0.235,-0.2351,-0.2352,-0.2353,-0.2302,-0.2299,-0.2296,-0.2259,0,0,-0.2287,-0.2286,0,0,0,0,0,0,0,0,-0.2452,-0.2446,-0.2396,-0.2395,-0.2393,-0.2358,-0.2365,-0.232,-0.235,-0.2366,-0.2352,-0.2353,-0.2319,-0.2315,-0.2303,-0.2257,-0.2255,-0.2287,-0.2285,-0.2284,-0.2283,0,0,0,0,0,0,0,-0.2455,-0.2448,-0.2382,-0.2395,-0.2394,-0.2393,-0.2388,-0.2356,-0.2338,-0.2365,-0.2365,-0.2359,-0.2318,-0.2306,-0.2302,-0.2254,-0.2287,-0.2284,-0.2283,-0.2282,-0.2172,-0.217,0,0,0,0,0,0,-0.246,-0.2451,-0.2384,-0.238,-0.2426,-0.239,-0.2385,-0.2369,-0.2338,-0.2335,-0.2358,-0.2359,-0.2311,-0.2306,-0.23,-0.2254,-0.2284,-0.2281,-0.228,-0.2173,-0.2171,-0.217,0,0,0,0,0,0,-0.2462,-0.2454,-0.2386,-0.2416,-0.2407,-0.2388,-0.237,-0.2367,-0.2355,-0.2333,-0.233,-0.2349,-0.2311,-0.2304,-0.2269,-0.2252,-0.228,-0.2277,-0.2174,-0.2172,-0.2171,-0.2161,0,0,0,0,0,0,-0.2464,-0.2455,-0.2441,-0.2415,-0.2405,-0.2356,-0.2369,-0.2366,-0.235,-0.2351,-0.2324,-0.232,-0.2312,-0.2273,-0.2266,-0.2248,-0.2275,-0.2176,-0.2173,-0.2171,-0.2162,-0.2159,-0.2156,0,0,0,0,0,-0.2468,-0.2441,-0.244,-0.2432,-0.2388,-0.2355,-0.2349,-0.234,-0.2349,-0.2334,-0.232,-0.2321,-0.2255,-0.227,-0.2262,-0.2243,-0.2177,-0.2174,-0.2171,-0.2164,-0.2159,-0.2156,0,0,0,0,0,0,-0.2466,-0.2437,-0.2437,-0.2401,-0.238,-0.2355,-0.2337,-0.2336,-0.2312,-0.2314,-0.2303,-0.2297,-0.2261,-0.2248,-0.2265,-0.2204,-0.2216,-0.2212,-0.2214,-0.2209,-0.2206,-0.221,-0.2272,0,0,0,0,0,-0.2461,-0.2437,-0.2413,-0.2383,-0.2373,-0.2357,-0.2342,-0.2336,-0.2315,-0.2306,-0.2289,-0.2267,-0.2241,-0.2225,-0.22,-0.216,-0.2153,-0.2143,-0.2139,-0.2137,-0.2133,-0.2109,-0.2104,-0.2161,-0.2161,-0.2162,0,0,-0.2451,-0.2433,-0.2418,-0.2382,-0.2366,-0.234,-0.235,-0.2323,-0.2303,-0.2302,-0.2267,-0.2253,-0.2228,-0.219,-0.2173,-0.2178,-0.2115,-0.2133,-0.2131,-0.2129,-0.2106,-0.21,-0.2095,-0.216,-0.216,-0.216,0,0,-0.242,-0.2404,-0.2377,-0.2359,-0.2334,-0.2323,-0.2316,-0.229,-0.2281,-0.2246,-0.2244,-0.222,-0.2176,-0.2157,-0.2142,-0.2101,-0.21,-0.2093,-0.2075,-0.2052,-0.2047,-0.2043,-0.2027,-0.2022,-0.2089,-0.2089,-0.2089,0,-0.2411,-0.2373,-0.2363,-0.2335,-0.2319,-0.2315,-0.2287,-0.227,-0.2238,-0.2226,-0.2233,-0.2176,-0.2159,-0.2116,-0.2105,-0.2093,-0.2084,-0.2096,-0.2049,-0.2045,-0.2041,-0.2025,-0.2019,-0.2088,-0.2088,-0.2088,-0.2088,0,-0.2363,-0.2336,-0.2317,-0.2285,-0.2266,-0.2238,-0.2223,-0.2205,-0.22,-0.2187,-0.215,-0.2129,-0.2099,-0.2088,-0.2083,-0.2043,-0.2047,-0.2051,-0.2064,-0.2034,-0.202,-0.2014,-0.2087,-0.2087,-0.2088,-0.2088,0,0,-0.2331,-0.2292,-0.2285,-0.2269,-0.2239,-0.2218,-0.2189,-0.2159,-0.2143,-0.212,-0.2095,-0.2056,-0.2059,-0.2042,-0.2035,-0.2014,-0.198,-0.2021,-0.202,-0.2013,-0.1933,-0.1929,-0.1923,-0.198,-0.1979,-0.1978,-0.1934,0,-0.2297,-0.2245,-0.2234,-0.2189,-0.2163,-0.2158,-0.2132,-0.211,-0.2097,-0.2072,-0.2058,-0.203,-0.2037,-0.2026,-0.2006,-0.1989,-0.1964,-0.1992,-0.1955,-0.1953,-0.1961,-0.1915,-0.1913,-0.1873,-0.1929,-0.1928,-0.1927,0,-0.225,-0.2225,-0.2177,-0.2148,-0.2137,-0.2114,-0.2085,-0.2062,-0.2036,-0.2027,-0.2007,-0.2001,-0.1968,-0.1982,-0.1936,-0.1955,-0.1939,-0.1928,-0.1926,-0.1923,-0.1939,-0.191,-0.186,-0.1854,-0.1918,-0.1919,-0.1919,0,-0.2231,-0.2185,-0.215,-0.2137,-0.2103,-0.2086,-0.2071,-0.2046,-0.2028,-0.2002,-0.199,-0.196,-0.1943,-0.192,-0.1905,-0.1917,-0.186,-0.1873,-0.1851,-0.1851,-0.184,-0.1841,-0.1786,-0.1829,-0.1829,-0.183,-0.183,0,-0.2193,-0.2164,-0.214,-0.2119,-0.2086,-0.2072,-0.2039,-0.2023,-0.2001,-0.1975,-0.1969,-0.1945,-0.1927,-0.19,-0.1888,-0.1851,-0.1844,-0.1835,-0.1832,-0.1836,-0.1837,-0.1825,-0.1827,-0.1828,-0.1828,-0.1829,-0.1829,0,-0.2167,-0.215,-0.2111,-0.2081,-0.2073,-0.2049,-0.2023,-0.2001,-0.1987,-0.1954,-0.1946,-0.1923,-0.1891,-0.1874,-0.1833,-0.1825,-0.1783,-0.1782,-0.1792,-0.1791,-0.177,-0.1772,-0.1706,-0.1696,-0.1746,-0.1746,-0.1745,0,-0.2144,-0.2122,-0.2088,-0.2071,-0.2055,-0.2027,-0.2008,-0.1992,-0.1972,-0.1939,-0.1921,-0.1888,-0.1861,-0.1809,-0.1788,-0.1757,-0.1755,-0.1733,-0.175,-0.1753,-0.1753,-0.1755,-0.1752,-0.1731,-0.173,-0.173,-0.173,0,-0.2106,-0.2098,-0.2071,-0.204,-0.2017,-0.1992,-0.1967,-0.1953,-0.1933,-0.1911,-0.1877,-0.1856,-0.1814,-0.1781,-0.1747,-0.173,-0.1726,-0.1724,-0.1718,-0.1721,-0.1728,-0.1723,-0.1784,-0.1726,-0.1727,-0.1727,-0.1727,-0.1727,-0.208,-0.2059,-0.2031,-0.2001,-0.198,-0.1956,-0.1934,-0.1916,-0.1888,-0.1852,-0.1844,-0.1808,-0.178,-0.1734,-0.1716,-0.1687,-0.1691,-0.1681,-0.1679,-0.1677,-0.1675,-0.1732,-0.1681,-0.1681,-0.1681,-0.1681,-0.1681,0,-0.2041,-0.2022,-0.1994,-0.1959,-0.1934,-0.1932,-0.1903,-0.1883,-0.1851,-0.1826,-0.1798,-0.1759,-0.1726,-0.1701,-0.1667,-0.1648,-0.1645,-0.1639,-0.1641,-0.1637,-0.1674,-0.1683,-0.1642,-0.1642,-0.1642,-0.1642,-0.1642,-0.1642,-0.2018,-0.1981,-0.1969,-0.1921,-0.1902,-0.1867,-0.1851,-0.1828,-0.1807,-0.1763,-0.1736,-0.172,-0.1694,-0.1657,-0.1626,-0.1619,-0.1607,-0.1601,-0.1594,-0.163,-0.1634,-0.1638,-0.1647,-0.1599,-0.1599,-0.1559,-0.1559,-0.1559]},{"header":{"parameterUnit":"m.s-1","parameterCategory":1,"la1":30.2991,"la2":30.254,"lo1":-89.0895,"lo2":-89.0444,"dy":0.0017,"dx":0.0017,"nx":28,"ny":28,"refTime":"2024-08-17T21:00:00:Z","depth":0,"parameterNumber":3,"parameterNumberName":"V-component_of_WINDS"},"data":[0,0,0,0,0,0,0,0,0,0,0,0,0,0,0,0,0,0,0,0,0,0,0,0,0,0,0,0,0,0,0,0,0,0,0,0,0,0,0,0,0,0,0,0,0,0,0,0,0,0,0,0,0,0,0,0,0,0,4.0778,4.0776,0,4.0576,4.0573,4.0571,4.0461,4.0461,4.046,4.046,4.0236,4.023,4.0225,0,0,0,0,0,0,0,0,0,0,0,0,0,4.1054,4.105,4.0778,4.0776,4.0773,4.0576,4.0573,4.057,4.0461,4.0461,4.046,4.046,4.0238,4.0231,4.0224,0,0,0,0,0,0,0,0,0,0,0,0,0,4.0901,4.1048,4.0778,4.0695,4.0686,4.0576,4.0573,4.0569,4.0461,4.046,4.046,4.046,4.024,4.0232,4.0223,4.0176,0,0,4.0197,4.0193,0,0,0,0,0,0,0,0,4.091,4.0891,4.071,4.0701,4.069,4.0543,4.0588,4.0437,4.0461,4.0546,4.046,4.046,4.0337,4.0321,4.0283,4.0166,4.0156,4.0196,4.0191,4.0187,4.0185,0,0,0,0,0,0,0,4.092,4.0899,4.0697,4.0707,4.0695,4.0662,4.064,4.0559,4.0445,4.0538,4.053,4.0508,4.0332,4.0292,4.0277,4.0153,4.0196,4.0189,4.0183,4.018,3.9985,3.9985,0,0,0,0,0,0,4.0947,4.0908,4.0704,4.0691,4.0802,4.0658,4.0633,4.059,4.0446,4.0424,4.0509,4.0504,4.0306,4.0287,4.0268,4.0203,4.0187,4.0179,4.0174,3.9985,3.9985,3.9985,0,0,0,0,0,0,4.0953,4.093,4.0712,4.0798,4.0768,4.0654,4.0606,4.0587,4.0547,4.0424,4.0401,4.049,4.0305,4.0281,4.0201,4.0194,4.0175,4.0167,3.9985,3.9985,3.9985,4.0074,0,0,0,0,0,0,4.0962,4.0933,4.0917,4.0798,4.0764,4.0653,4.0606,4.0583,4.0534,4.0526,4.04,4.0379,4.0303,4.0215,4.0192,4.0182,4.016,3.9985,3.9985,3.9985,4.0071,4.0077,4.0082,0,0,0,0,0,4.0972,4.0947,4.0917,4.0893,4.0743,4.0653,4.0632,4.0551,4.0534,4.0515,4.0436,4.0383,4.0199,4.0207,4.0181,4.0168,3.9985,3.9985,3.9985,4.0068,4.0075,4.0082,0,0,0,0,0,0,4.1061,4.0929,4.0895,4.0832,4.0756,4.0635,4.0608,4.0561,4.0483,4.0478,4.0375,4.0347,4.0277,4.0214,4.0226,4.0114,4.0086,4.0081,4.0158,4.0164,4.0169,4.0185,4.0153,0,0,0,0,0,4.1075,4.1019,4.0904,4.0859,4.0823,4.0723,4.068,4.0625,4.0539,4.0504,4.0419,4.0333,4.0255,4.0206,4.0128,4.0062,4.0031,4.0039,4.0045,4.005,4.0046,4.0004,4.0006,3.9985,3.9985,3.9985,0,0,4.11,4.1021,4.099,4.0875,4.0809,4.0747,4.0696,4.0633,4.0585,4.0492,4.0413,4.0348,4.0245,4.0172,4.0135,4.0117,4.0045,4.005,4.0055,4.0048,4.0005,4.0007,4.0008,3.9985,3.9985,3.9985,0,0,4.1114,4.1051,4.1006,4.0942,4.0845,4.0779,4.0769,4.0656,4.0611,4.0532,4.0461,4.0399,4.0269,4.0198,4.0145,4.0135,4.0082,4.0112,4.0139,4.01,4.0102,4.0103,4.0097,4.0097,4.0109,4.0109,4.0109,0,4.1156,4.1067,4.0987,4.093,4.088,4.08,4.0751,4.0691,4.0571,4.0536,4.052,4.0355,4.0279,4.0188,4.0187,4.0147,4.0128,4.0125,4.0109,4.0109,4.0109,4.0102,4.01,4.0113,4.0113,4.0112,4.0112,0,4.1122,4.106,4.1035,4.0929,4.0875,4.0822,4.073,4.0685,4.0635,4.0569,4.0487,4.0395,4.0297,4.0271,4.0219,4.0172,4.0164,4.013,4.0099,4.0116,4.0108,4.0105,4.0119,4.0118,4.0117,4.0115,0,0,4.1184,4.1038,4.1029,4.098,4.0868,4.0816,4.0758,4.0668,4.063,4.055,4.0496,4.0389,4.0357,4.0297,4.0235,4.0202,4.0197,4.017,4.0166,4.0177,4.0137,4.0163,4.0162,4.0163,4.0162,4.0161,4.0145,0,4.1181,4.108,4.1008,4.0931,4.0872,4.0796,4.0745,4.0668,4.0605,4.0541,4.0469,4.0395,4.036,4.0323,4.0286,4.0206,4.0188,4.0206,4.0106,4.0104,4.0134,4.0157,4.0184,4.0173,4.0142,4.0141,4.0141,0,4.1164,4.1093,4.1013,4.0909,4.0881,4.0837,4.0748,4.069,4.06,4.0556,4.0492,4.043,4.036,4.0338,4.0238,4.0253,4.0207,4.0162,4.0159,4.0145,4.0122,4.0141,4.0168,4.0166,4.0135,4.0136,4.0136,0,4.1216,4.11,4.1037,4.0997,4.0874,4.0844,4.079,4.0701,4.0651,4.0572,4.0538,4.045,4.0401,4.0332,4.0246,4.0238,4.0154,4.0125,4.0112,4.0114,4.0095,4.0097,4.0113,4.007,4.007,4.007,4.0071,0,4.1219,4.1172,4.1059,4.102,4.0965,4.0881,4.0826,4.0765,4.0686,4.063,4.0557,4.0504,4.0396,4.0329,4.0261,4.0188,4.0166,4.0125,4.0107,4.0131,4.0136,4.0098,4.0095,4.007,4.007,4.007,4.007,0,4.1267,4.119,4.1116,4.1007,4.0979,4.0942,4.0846,4.0803,4.0738,4.0668,4.0646,4.0541,4.0459,4.0368,4.0253,4.0208,4.0138,4.0113,4.017,4.016,4.0151,4.0153,4.0141,4.0134,4.0099,4.01,4.01,0,4.1273,4.1236,4.1125,4.1086,4.1036,4.0972,4.0923,4.0838,4.0788,4.0684,4.0652,4.0566,4.0493,4.0364,4.0274,4.0185,4.0156,4.0159,4.0142,4.0167,4.0154,4.0157,4.0151,4.0163,4.0164,4.0164,4.0165,0,4.1291,4.1256,4.1191,4.1113,4.1059,4.0991,4.092,4.0891,4.079,4.0737,4.0656,4.06,4.0486,4.04,4.0301,4.0239,4.0183,4.0172,4.0163,4.0186,4.022,4.02,4.0182,4.0171,4.0171,4.017,4.017,4.017,4.1316,4.1281,4.1198,4.1128,4.1067,4.1003,4.0958,4.089,4.0822,4.0727,4.0679,4.0598,4.0506,4.0369,4.0309,4.024,4.0222,4.0211,4.0208,4.0206,4.0212,4.0234,4.0222,4.0221,4.0221,4.0221,4.022,0,4.133,4.1274,4.1211,4.1118,4.1062,4.1022,4.0942,4.0896,4.0827,4.075,4.0681,4.0586,4.0503,4.0408,4.0317,4.028,4.0252,4.0259,4.0259,4.0245,4.0233,4.0249,4.0283,4.0283,4.0283,4.0283,4.0283,4.0283,4.133,4.1267,4.1222,4.1127,4.1069,4.0994,4.0951,4.0891,4.0829,4.0729,4.0661,4.0603,4.0516,4.042,4.034,4.0313,4.0282,4.0296,4.0262,4.0251,4.0246,4.0241,4.0255,4.029,4.029,4.0279,4.0279,4.0279]}]]